Theta_e
296 288 285 285 289 291 292 292 292 292 292 291 289 288 288 288 288 291 292 294 294 292 289 291 290 289 291 292 295 298 299 296 295 296 297 295 296 297 297 297 296 296 296 297 297 297 297 298 298 299 299 299 299 299 299 299 299 300 300 301 300 303 305 307 308 307 306 307 305 306 306 306 306 306 306 308 308 308 308 308 309 309 310 310 310 310
296 288 287 290 292 293 294 294 292 291 291 290 289 287 287 288 288 291 292 294 296 292 287 289 289 290 292 294 296 299 296 296 296 296 295 295 297 297 296 296 296 296 297 296 296 296 296 296 296 297 297 297 296 297 297 297 298 298 299 299 300 301 301 303 306 306 306 305 307 307 306 305 305 306 307 308 307 308 307 306 306 305 306 307 309 309
288 287 290 292 294 295 294 293 293 292 292 291 289 288 286 286 289 291 293 294 293 293 287 287 289 290 293 295 297 297 296 297 297 295 295 297 296 296 295 295 294 294 294 295 295 295 295 295 295 296 296 296 296 296 296 297 297 297 297 298 299 299 300 300 300 303 304 305 306 306 303 304 304 303 304 305 304 304 305 304 304 304 304 304 305 305
285 287 292 295 295 293 293 293 292 292 291 289 288 286 286 288 288 284 288 291 293 292 288 289 289 290 292 295 295 297 296 295 297 297 296 296 295 294 294 294 294 293 293 293 293 293 294 294 294 294 295 295 295 295 295 296 296 296 296 296 297 298 298 299 299 299 300 302 303 303 303 303 304 303 301 302 302 303 304 305 303 302 303 303 303 303
290 293 297 295 294 293 292 293 291 289 287 287 289 288 287 288 288 288 288 291 291 292 291 288 287 286 290 291 292 295 294 295 296 296 296 296 295 295 294 294 294 293 292 292 292 292 292 292 293 293 294 295 294 294 294 295 295 296 295 295 296 296 297 298 298 299 299 300 301 302 302 300 298 297 299 297 296 296 298 300 302 303 302 302 302 301
291 295 297 295 294 292 291 291 291 291 287 287 288 291 291 290 289 290 290 289 284 284 287 288 279 278 285 288 290 293 292 292 293 294 293 293 293 294 293 292 293 293 293 292 291 291 291 292 292 292 293 293 294 294 294 295 295 294 295 295 295 296 296 297 297 298 298 298 297 297 297 296 294 294 295 297 297 297 298 300 298 300 301 301 301 300
292 295 296 295 294 293 291 290 290 292 286 286 287 293 292 290 290 289 288 287 279 280 287 290 281 277 285 289 292 294 290 290 291 292 292 292 292 291 291 291 291 291 291 291 291 291 291 291 291 291 291 292 293 294 294 295 294 294 294 294 295 295 295 296 296 297 297 297 297 296 296 295 295 294 295 295 296 297 298 298 299 299 299 300 300 299
294 292 292 292 292 291 289 289 291 292 288 285 287 291 290 290 290 288 288 287 283 284 286 289 286 281 279 286 292 292 289 289 290 291 291 291 291 290 290 290 290 290 290 290 289 290 290 290 290 289 290 291 292 292 294 294 294 294 294 294 294 295 295 295 295 295 296 295 295 295 295 295 294 294 294 296 296 297 296 296 297 296 298 298 298 299
293 291 291 290 290 288 288 291 292 292 288 285 290 291 290 290 288 288 287 284 282 283 279 281 286 281 278 283 289 290 287 287 288 289 289 290 290 290 290 290 289 289 289 289 289 288 289 289 289 289 289 290 291 291 292 293 293 294 294 294 294 294 294 294 295 295 295 294 294 294 294 293 294 294 295 295 296 296 296 295 295 296 295 295 296 297
294 294 292 292 289 287 289 289 292 293 290 291 291 291 290 289 289 288 283 284 282 281 274 281 285 278 279 283 286 286 286 286 287 288 288 288 288 288 288 288 289 289 288 288 288 288 288 288 289 289 289 289 289 290 291 291 292 292 292 293 293 293 293 293 294 294 294 294 294 293 292 292 292 293 293 293 294 294 293 293 294 294 295 294 294 295
293 294 295 293 291 291 290 291 291 294 292 292 290 287 285 284 284 283 282 280 279 274 277 283 285 284 276 281 284 285 285 288 287 287 287 288 288 288 288 287 287 288 288 287 287 288 288 288 288 288 288 288 289 289 290 290 290 290 291 291 291 292 293 293 293 293 292 293 293 292 292 291 291 292 292 292 292 292 292 292 292 292 293 293 293 293
292 292 292 291 295 293 292 291 291 290 291 289 285 283 284 283 279 281 277 278 274 272 278 280 283 285 276 277 285 286 289 291 289 287 286 286 286 287 287 287 287 287 286 287 287 287 287 287 287 288 288 288 288 289 289 290 290 290 290 290 290 291 291 292 292 292 292 292 292 291 291 291 291 291 291 291 290 290 290 291 291 291 292 292 292 292
286 288 290 293 295 294 290 289 286 286 287 286 283 281 278 274 276 273 274 272 272 274 278 281 282 281 281 284 286 287 288 289 289 288 287 286 286 286 286 287 286 286 286 286 286 286 287 287 286 286 287 287 287 287 287 288 289 289 289 288 289 289 290 291 291 291 291 291 291 290 290 290 291 290 290 290 290 290 290 290 290 290 290 290 291 292
285 286 291 291 292 294 291 286 282 285 285 284 283 280 276 273 271 268 268 271 272 275 280 280 284 279 282 285 288 286 287 288 288 288 287 287 286 286 286 286 286 286 286 286 285 285 285 286 286 286 286 286 287 287 287 287 288 288 288 288 288 288 289 290 290 290 290 290 290 290 290 290 290 290 290 290 289 290 290 290 290 290 290 289 290 290
279 281 285 290 287 292 292 291 288 283 283 286 283 286 280 276 273 271 271 272 273 275 277 280 279 275 277 282 286 287 287 288 288 287 287 286 286 286 285 285 285 285 285 285 285 285 285 285 285 285 286 286 286 286 286 287 287 287 287 287 287 287 288 288 289 289 289 289 289 289 289 289 289 289 289 289 289 289 289 289 289 289 289 289 289 289
284 283 287 291 290 291 290 292 292 287 285 285 286 284 281 281 282 279 279 277 275 276 277 277 279 278 282 286 286 286 287 287 287 286 286 285 286 285 285 285 285 285 285 285 284 284 284 284 284 285 285 285 285 285 285 286 286 286 286 286 287 287 288 288 288 288 288 288 289 289 288 288 288 288 288 288 288 288 288 288 288 288 288 288 288 289
284 280 288 291 289 289 288 289 292 291 281 285 286 282 284 286 286 281 280 280 278 277 277 279 281 283 284 285 285 285 285 285 285 285 285 285 285 284 284 285 285 285 285 285 285 284 284 284 284 285 285 285 285 285 285 286 286 286 287 287 287 287 287 288 288 288 289 288 288 288 288 288 287 287 287 287 286 286 286 286 286 286 287 287 287 288
283 283 289 287 288 291 287 289 290 290 289 284 282 280 285 288 286 283 275 276 276 275 276 281 277 278 280 275 283 283 283 283 283 284 284 285 284 284 284 285 286 286 286 285 285 284 284 284 285 285 286 287 287 287 287 287 287 287 286 286 286 286 287 287 288 288 288 288 288 288 288 287 286 286 286 286 285 285 285 285 285 285 285 285 286 287
286 280 285 285 288 290 290 290 287 289 289 287 284 287 285 279 278 280 277 273 272 272 271 276 280 280 280 281 281 281 282 283 283 284 283 284 284 284 285 286 286 286 285 285 286 285 285 284 285 285 286 286 286 287 287 287 287 286 285 285 285 285 285 285 286 285 286 286 286 287 287 287 288 287 286 286 285 285 285 285 285 284 284 284 285 285
286 281 282 288 288 289 287 285 280 283 288 288 288 284 285 281 279 278 281 275 278 274 276 270 279 277 283 281 283 283 283 284 284 284 284 285 286 286 286 287 287 286 286 286 286 287 287 287 287 286 286 286 286 286 286 285 285 286 286 286 286 286 286 286 286 286 286 286 286 286 286 286 286 286 286 286 286 285 285 284 283 283 283 283 283 283
283 285 276 284 285 287 282 283 282 283 281 282 281 281 283 279 283 281 279 277 276 274 276 277 276 280 283 287 285 285 285 286 286 286 285 286 287 289 288 289 288 288 287 288 287 286 286 285 284 284 284 284 283 283 283 284 284 284 283 283 284 284 284 284 284 283 283 283 283 283 282 283 283 283 284 283 284 284 283 282 282 282 282 282 283 282
279 282 281 279 281 281 281 286 285 286 285 283 283 280 282 279 278 277 277 282 280 281 277 278 276 280 285 289 287 286 287 287 288 288 288 287 288 287 288 289 287 285 284 284 284 283 283 282 282 283 282 282 282 282 282 283 283 283 283 283 283 282 281 281 281 283 283 283 283 281 281 281 281 281 280 280 280 280 280 280 281 281 282 281 282 282
286 284 282 281 282 284 286 288 290 292 290 288 289 286 286 283 283 279 276 279 279 279 282 281 278 279 286 287 288 288 288 288 288 288 288 286 286 286 285 285 285 284 284 284 283 283 282 282 281 281 281 282 281 282 281 281 282 283 282 282 282 281 281 281 282 283 282 282 280 280 279 279 279 279 279 279 279 279 279 279 279 280 280 280 280 281
291 281 281 283 284 285 287 288 287 287 289 288 286 284 285 283 283 280 279 279 277 280 280 278 276 281 287 288 288 287 286 288 288 288 288 287 287 286 285 284 284 283 283 282 282 281 282 281 282 282 282 282 281 282 281 280 280 280 280 279 280 280 280 280 280 280 280 279 279 279 278 278 278 278 278 278 278 278 278 278 278 279 279 279 279 279
281 282 283 279 278 278 279 279 283 285 284 281 281 283 286 285 285 282 283 283 279 281 281 278 272 280 287 288 286 287 287 288 286 285 285 285 284 284 284 283 283 282 281 280 282 281 280 281 281 281 280 280 280 280 279 279 279 279 279 279 279 279 279 279 279 279 279 279 278 278 278 278 278 278 278 278 278 278 277 278 277 278 277 277 278 278
282 281 280 274 274 272 269 268 267 275 279 282 283 282 283 283 282 279 276 279 277 282 281 277 275 283 287 286 287 288 286 285 285 285 284 283 282 282 281 281 281 281 280 279 279 280 280 281 280 279 279 279 279 279 279 279 279 279 279 279 279 279 279 279 278 278 278 278 278 278 277 277 277 278 278 278 277 277 277 278 277 277 277 277 278 278
278 281 281 278 277 276 277 276 279 282 280 279 279 279 281 281 281 280 279 276 275 277 276 279 279 279 281 284 285 283 281 281 282 282 283 282 281 280 281 281 281 281 281 281 280 279 279 280 279 279 279 279 279 279 279 280 280 279 279 279 279 279 279 280 279 279 278 279 278 278 279 278 278 279 279 279 279 278 277 277 277 277 277 278 277 278
280 279 280 280 279 280 281 281 281 282 280 280 278 279 279 278 277 274 275 275 276 275 273 280 279 275 279 281 281 282 280 280 280 280 280 280 281 281 281 281 285 281 281 280 280 280 280 279 279 279 279 279 279 279 278 278 279 280 280 280 280 279 279 282 280 280 279 279 279 278 279 278 278 278 279 279 279 279 278 278 278 277 277 277 277 278
280 278 277 281 279 282 281 281 280 279 279 278 278 278 278 280 276 273 273 278 276 275 274 278 278 276 278 281 283 283 282 282 279 280 280 280 281 281 280 281 279 278 277 279 279 278 278 279 280 280 280 280 279 279 280 280 280 279 279 279 279 279 280 280 279 279 279 278 278 279 278 278 279 279 279 279 279 279 279 279 279 279 278 277 277 278
273 269 274 276 273 274 277 278 279 279 278 278 278 278 279 278 278 277 277 279 278 276 278 278 278 278 281 282 283 284 283 280 281 280 279 279 277 277 276 276 277 277 277 278 278 278 278 278 278 278 279 279 279 280 280 280 280 281 281 281 281 280 280 279 279 279 279 278 278 278 278 278 278 278 278 278 279 279 279 279 279 279 279 279 279 278
279 271 280 273 268 266 269 277 277 276 276 274 276 278 278 279 278 278 278 278 277 277 278 278 277 277 282 282 282 281 279 278 278 277 277 276 276 276 276 277 276 276 276 276 276 276 277 277 278 278 278 278 279 279 279 280 279 280 280 280 280 280 281 280 279 279 279 279 279 278 277 277 278 278 277 278 278 278 278 279 279 279 279 279 279 279
277 270 272 269 268 265 268 273 275 273 274 274 275 276 277 276 275 277 275 278 276 275 277 276 274 275 278 279 279 277 277 276 275 276 276 277 276 276 277 276 275 275 275 276 276 276 277 277 278 278 278 278 278 278 278 278 279 279 280 280 280 281 280 280 279 279 279 279 278 278 278 278 278 277 278 277 277 278 278 278 278 278 279 279 279 279
274 271 271 268 269 267 272 272 272 273 273 271 273 276 277 277 278 278 278 279 279 279 275 272 274 277 278 280 277 277 274 275 275 275 276 276 275 276 276 276 275 275 276 276 277 277 277 278 279 278 277 277 278 278 278 278 278 279 279 279 279 279 279 278 278 278 278 278 278 278 278 278 277 277 277 278 277 277 277 277 277 278 278 278 279 278
278 278 272 273 269 266 269 269 273 272 266 268 278 279 278 276 276 275 275 277 278 279 276 277 275 277 278 277 277 275 274 274 275 276 277 277 276 276 275 275 275 277 277 277 276 277 277 277 277 277 277 278 278 278 279 278 278 278 278 277 277 277 277 277 277 277 277 277 277 277 277 277 277 277 277 277 277 277 277 277 277 277 278 277 277 277
278 276 271 273 271 267 267 269 269 265 267 277 279 280 279 278 277 277 277 277 277 276 275 275 274 273 277 278 276 275 274 275 275 275 275 276 276 276 276 276 278 278 277 276 277 276 277 278 277 277 277 278 278 278 278 278 277 276 277 276 276 276 276 276 275 275 276 276 276 276 276 276 276 276 276 276 276 276 276 276 276 277 277 276 276 276
274 274 273 274 274 273 271 270 263 265 275 275 276 274 274 274 272 274 272 275 275 276 276 274 275 275 275 274 274 274 275 276 275 275 276 276 277 276 276 277 278 277 277 277 277 277 277 277 277 277 277 278 276 277 276 275 275 275 275 275 275 275 275 274 274 274 275 275 275 275 275 275 274 274 274 274 274 274 274 274 274 274 275 275 275 275
279 276 276 272 278 268 271 271 270 272 272 275 275 276 275 275 274 273 269 272 273 274 276 276 275 275 274 274 275 275 275 274 273 275 275 276 278 276 278 278 278 277 277 277 277 277 277 277 276 276 276 275 275 274 274 273 273 273 273 273 274 273 273 273 273 273 273 273 274 274 273 273 272 272 272 271 271 271 271 271 271 272 273 272 272 272
282 277 278 273 270 276 269 268 267 264 264 269 273 277 278 277 276 276 270 267 274 274 275 277 275 274 274 274 274 275 274 272 271 273 275 277 277 278 277 278 277 277 276 276 276 276 276 276 275 275 274 273 273 272 272 272 272 272 271 271 272 271 271 271 271 272 272 272 272 272 271 271 270 269 269 268 268 268 268 269 269 269 270 269 269 269
278 281 279 277 272 272 268 267 266 263 264 269 272 275 278 276 276 273 267 264 270 267 266 272 271 271 272 272 274 273 270 266 269 273 276 275 275 276 278 277 276 276 276 276 276 276 275 275 274 273 273 272 271 271 271 271 271 270 270 270 270 270 269 269 270 270 270 270 270 269 268 268 267 266 266 265 265 266 265 265 265 266 267 266 267 267
271 269 273 272 272 271 268 266 264 264 259 267 270 275 276 273 275 271 262 259 269 269 268 273 273 272 272 272 273 272 270 264 270 274 276 276 276 276 276 278 276 275 276 276 275 275 274 273 272 272 271 270 270 270 270 270 269 268 268 268 268 268 268 268 269 269 268 268 267 266 265 265 264 264 263 263 263 263 263 264 264 264 264 264 264 264
265 264 269 270 271 271 273 269 268 267 271 270 273 274 275 274 272 262 263 265 271 272 271 272 274 274 274 273 274 268 274 276 276 277 276 275 276 275 275 276 276 276 276 274 275 276 272 272 272 271 270 270 270 269 269 268 266 266 266 267 267 266 267 267 267 266 266 265 264 263 262 262 262 261 261 261 261 262 262 262 262 262 262 261 262 263
260 259 261 265 265 267 268 268 268 266 269 274 274 276 277 274 263 265 272 272 274 274 275 275 275 275 275 275 275 276 277 277 276 275 275 274 276 276 275 275 275 274 274 274 274 272 271 271 269 269 269 269 268 268 266 265 264 265 265 265 264 265 266 265 265 264 263 262 262 261 261 260 260 261 260 260 260 260 260 260 261 260 260 261 261 261
266 264 260 263 264 263 262 262 262 260 268 275 275 275 276 268 268 274 274 274 273 276 276 276 276 276 275 275 276 277 277 276 275 275 275 274 275 276 275 274 273 272 272 271 270 270 269 268 268 267 267 267 267 266 266 263 263 263 263 263 264 264 264 264 263 262 261 260 260 260 259 259 259 259 259 259 259 259 258 259 259 259 260 260 260 260
269 260 259 262 268 260 263 262 262 267 274 275 276 269 270 275 275 275 274 273 275 275 275 276 276 277 277 277 276 276 276 276 274 274 274 274 273 274 274 273 272 271 270 270 269 268 266 266 266 266 266 266 265 264 264 262 261 262 262 262 263 264 263 262 261 260 259 259 259 258 258 258 258 258 258 258 258 258 258 258 258 259 259 259 259 259
272 267 268 267 268 265 263 263 268 272 275 275 276 276 275 277 277 277 277 277 276 275 276 276 277 278 277 277 277 277 276 275 276 275 275 275 274 273 272 271 270 269 268 268 267 266 265 265 264 264 264 264 263 262 261 261 260 260 260 261 262 261 261 260 259 259 258 258 257 257 257 258 257 257 257 257 258 257 257 257 258 257 258 258 258 258
272 274 272 271 270 273 272 274 275 274 275 275 277 278 278 278 277 274 275 275 276 277 277 277 278 278 277 276 276 275 276 276 275 274 274 273 273 272 271 269 268 267 266 266 265 265 263 262 262 262 262 262 262 262 261 260 259 258 260 261 261 260 260 259 258 257 257 257 257 257 257 257 257 257 257 257 258 257 258 257 257 257 257 257 257 257
273 275 272 270 272 270 264 274 273 276 277 277 277 277 277 277 278 278 277 277 278 278 278 277 277 277 278 276 276 276 276 275 275 274 273 272 271 269 268 267 267 266 265 263 265 263 262 260 261 260 260 260 261 260 260 258 258 259 260 259 260 260 259 257 257 257 257 256 257 257 257 256 256 257 257 257 257 257 257 257 257 257 257 257 256 256
271 276 271 273 271 271 270 275 276 277 277 277 277 276 276 277 277 277 278 278 278 278 277 278 277 276 275 274 276 275 275 274 273 273 272 271 269 267 267 266 265 265 264 264 263 260 259 260 259 259 259 259 260 260 259 258 257 258 258 258 259 258 257 256 256 256 256 256 256 256 256 256 258 257 256 257 256 256 256 256 257 256 256 256 256 256
274 275 265 270 271 272 274 275 276 276 275 276 276 276 277 278 278 277 278 277 277 277 276 275 275 276 275 276 274 274 272 271 272 271 269 268 266 266 265 265 264 263 263 262 261 259 259 258 258 257 257 258 259 258 257 256 257 257 258 258 257 257 255 256 256 256 256 256 256 256 257 257 256 256 256 256 256 256 256 256 256 256 257 259 259 259
271 271 275 270 267 268 270 274 274 268 269 275 277 278 277 278 278 278 278 277 276 276 275 274 272 271 273 272 272 272 271 269 268 268 267 267 266 265 264 263 262 262 261 261 260 258 257 257 256 256 256 257 258 257 256 256 257 257 258 257 257 256 255 256 256 255 256 256 256 256 256 256 256 256 256 256 256 256 256 260 263 262 260 260 264 267
274 275 274 271 271 270 276 277 277 277 276 277 278 278 277 277 277 276 276 277 277 277 277 275 273 270 269 268 268 268 266 269 268 268 267 265 264 264 262 261 261 261 260 259 258 257 256 256 256 255 255 256 256 256 256 256 256 256 257 257 257 257 256 256 256 256 256 256 256 256 257 256 256 256 256 256 256 255 255 255 257 263 266 266 266 267
Wind_Speed
4 4 6 7 8 8 8 11 13 10 8 7 5 5 8 7 5 4 4 5 3 5 3 7 5 4 6 8 11 17 15 6 8 11 11 5 7 10 10 11 11 13 10 7 11 13 14 14 13 12 12 12 15 15 15 15 14 13 11 12 11 9 6 6 5 5 5 5 2 3 4 2 2 3 3 4 3 4 2 3 3 4 4 4 4 4
4 4 6 8 9 10 13 9 6 6 5 6 6 5 7 3 8 3 5 4 6 0 3 3 4 6 9 10 15 20 8 14 11 10 4 7 9 8 11 10 10 8 6 11 15 15 14 13 13 13 12 14 16 14 14 14 12 12 13 12 10 10 10 9 6 5 5 3 3 4 1 3 2 2 1 1 1 1 2 1 2 3 3 4 4 4
3 7 8 12 11 9 6 4 5 6 8 7 6 4 5 6 5 4 6 3 2 2 5 3 5 8 10 13 19 13 10 12 9 4 3 12 8 9 10 9 9 11 11 13 12 12 12 13 13 12 12 12 11 11 12 11 13 13 12 10 9 10 9 9 9 8 6 6 5 6 4 3 3 3 2 1 1 1 1 2 2 2 3 3 3 3
3 4 14 12 7 6 7 6 6 7 4 4 6 6 9 4 2 6 5 4 4 1 4 4 6 8 8 14 13 14 9 4 9 14 13 11 12 11 10 7 9 11 11 14 11 10 10 11 11 11 11 10 10 11 12 12 12 10 10 10 10 10 9 9 9 8 6 5 5 5 6 5 6 4 4 4 5 5 4 3 3 1 1 2 2 2
11 8 10 9 6 6 9 8 7 5 6 3 5 5 5 4 3 5 5 3 3 4 1 4 6 5 7 8 8 7 6 10 9 15 14 12 11 10 10 12 11 11 10 11 10 10 9 12 12 11 9 8 11 11 11 11 10 8 10 9 9 8 9 8 9 9 8 9 8 7 7 6 5 5 7 5 5 3 2 1 2 1 0 1 1 2
8 7 3 4 5 5 5 7 10 4 7 3 5 8 7 4 4 2 1 3 6 4 2 4 6 3 5 4 8 10 6 8 3 13 10 9 8 8 12 11 10 10 9 10 10 9 9 10 9 11 11 13 12 12 11 9 10 10 10 10 10 9 9 9 9 8 8 8 8 8 8 7 6 6 6 7 4 6 5 3 2 1 0 1 1 1
6 6 9 10 8 7 5 6 4 6 5 1 6 2 3 3 2 0 2 4 1 1 1 3 1 8 2 6 11 10 7 5 4 10 8 8 8 9 9 8 9 9 9 8 8 8 10 10 10 11 12 10 11 10 7 9 10 11 10 9 9 9 8 9 9 10 8 9 8 8 7 7 6 6 4 3 3 3 5 3 4 2 1 0 1 1
3 4 5 3 5 6 6 8 5 7 4 5 2 3 3 2 1 1 0 1 5 1 4 2 5 8 4 8 15 5 10 5 6 7 8 7 8 9 8 8 7 8 6 7 8 8 8 9 10 11 9 9 8 6 7 9 9 11 11 10 10 9 10 10 9 10 9 8 8 9 7 7 7 5 4 5 5 5 6 7 6 3 2 1 1 2
0 1 2 2 2 3 6 7 1 5 6 4 1 3 0 1 1 1 0 1 2 1 7 5 1 1 5 9 5 8 6 4 4 5 5 6 7 8 7 7 8 7 6 5 7 8 8 9 9 8 10 8 8 8 9 9 9 9 10 11 11 13 11 11 12 11 11 9 9 8 8 8 6 6 6 5 6 7 6 7 7 7 5 3 1 1
3 1 5 5 5 6 6 1 2 8 2 2 2 1 2 1 0 1 1 0 2 1 4 6 4 4 7 6 7 2 7 6 5 4 5 5 5 6 7 6 5 5 6 5 6 7 8 8 7 5 5 8 8 8 7 7 7 8 7 10 11 11 10 10 11 11 11 11 9 10 9 9 8 8 7 7 8 7 6 7 7 7 8 7 5 3
2 2 4 2 4 5 3 1 1 1 2 3 4 2 5 6 3 2 3 2 3 2 6 10 5 6 5 4 3 6 6 7 7 4 4 6 6 5 5 5 4 4 4 5 6 6 7 6 6 6 8 6 6 5 5 7 7 7 8 6 9 7 7 8 8 9 9 8 9 9 9 9 8 8 7 8 8 8 8 8 7 7 6 6 7 6
1 1 0 2 0 3 3 2 3 1 1 3 2 2 5 6 4 3 2 3 1 5 7 5 7 10 6 4 3 2 2 12 15 15 10 7 5 5 4 4 4 3 4 4 6 7 7 8 9 8 10 9 9 10 11 10 10 10 9 9 10 11 10 9 9 9 9 8 9 9 8 8 7 6 6 7 7 7 7 6 7 7 7 7 6 6
2 7 4 0 2 7 1 1 3 4 2 4 4 4 2 4 4 2 2 1 4 6 2 1 3 1 7 8 3 2 4 4 6 6 10 10 8 5 4 4 3 3 4 6 7 8 8 9 9 10 9 9 10 9 9 10 9 9 10 10 10 11 10 9 7 8 7 9 10 10 10 9 8 8 7 6 6 6 6 7 7 7 7 6 7 8
6 2 2 3 3 3 6 6 2 1 1 5 4 4 4 0 0 3 5 2 3 6 6 3 1 3 4 5 1 3 3 6 10 9 7 8 8 7 5 4 3 4 5 7 7 7 6 7 7 7 7 8 8 9 10 9 9 8 8 9 10 9 9 9 10 10 10 10 9 9 9 8 6 7 6 7 7 8 7 7 7 6 6 6 6 7
2 4 5 6 3 2 7 7 9 3 7 9 4 10 9 6 2 4 3 5 6 6 3 3 3 5 1 1 3 4 4 8 8 8 7 7 6 5 4 4 4 5 5 5 6 6 6 6 6 6 6 6 7 8 8 8 9 9 9 9 10 10 10 10 9 9 11 10 11 10 9 9 8 8 8 8 8 8 8 8 7 7 6 6 6 7
7 6 3 1 1 1 7 0 3 4 2 2 2 4 3 5 5 6 3 2 2 3 6 1 5 3 1 1 3 4 6 9 7 7 6 6 5 4 4 4 4 4 4 4 4 4 4 4 4 5 5 4 5 5 5 6 6 7 7 7 8 8 8 9 9 9 9 9 8 9 10 9 8 7 6 6 7 6 5 5 4 5 5 6 6 6
0 3 0 2 5 2 2 0 1 1 1 1 4 3 5 2 2 2 4 2 0 1 8 2 4 2 2 2 4 3 7 6 5 5 5 5 4 4 4 3 3 3 2 3 2 2 2 3 4 4 4 4 4 5 5 5 5 6 7 8 9 10 9 10 9 8 7 8 9 9 9 9 9 9 8 7 6 4 3 2 3 4 5 5 7 6
4 5 1 3 1 1 1 0 0 2 2 5 2 5 0 1 2 2 4 1 3 7 7 3 4 4 2 6 3 2 6 3 4 4 4 4 3 4 3 2 3 3 3 3 3 3 2 2 3 3 3 3 3 4 4 5 5 6 6 6 7 7 7 7 7 7 7 7 7 7 7 6 5 5 5 5 6 6 7 8 8 8 9 9 7 5
3 3 2 1 1 2 1 1 3 2 2 3 2 1 0 4 3 2 4 3 4 5 4 3 8 5 7 6 4 6 8 6 5 4 4 3 2 4 3 3 3 3 3 4 4 3 3 3 3 3 2 3 3 4 4 4 4 4 5 5 4 4 4 4 4 4 5 4 3 3 4 3 4 4 3 3 3 3 5 6 6 7 7 8 9 9
2 3 4 0 2 1 2 4 3 2 3 2 2 2 0 2 3 3 4 3 1 8 5 4 5 7 1 1 5 9 8 10 9 7 5 7 6 6 5 5 6 5 5 4 3 3 3 3 3 3 3 3 3 3 4 3 3 3 3 4 4 4 3 3 3 3 3 3 3 2 3 3 3 3 3 3 3 6 6 6 7 6 7 7 6 6
1 2 4 0 3 1 1 1 5 6 3 1 2 1 1 1 2 2 1 3 4 3 4 7 8 5 2 3 5 11 11 9 9 7 5 6 6 7 7 7 7 6 4 4 3 3 3 3 2 1 1 2 2 1 2 1 1 1 1 1 1 2 3 4 4 3 3 2 2 1 2 2 2 3 3 4 4 5 5 6 5 5 4 5 6 4
1 0 6 3 2 3 5 3 4 4 3 3 5 5 5 2 1 4 9 2 1 5 4 5 10 1 2 3 3 9 7 8 8 9 7 7 6 7 6 5 5 4 3 3 3 4 4 3 2 0 0 0 0 0 0 0 0 0 1 2 1 1 2 1 2 2 3 3 3 1 1 1 1 1 2 2 2 3 3 3 3 3 4 4 5 4
3 1 2 5 6 7 6 4 2 3 2 3 5 6 5 3 3 3 9 5 1 4 3 4 6 2 1 3 3 7 8 8 8 6 7 7 8 7 5 4 3 4 4 4 4 4 4 3 3 3 2 1 2 1 1 1 2 2 2 3 3 2 2 3 3 3 2 2 3 3 3 2 0 0 0 0 1 1 1 1 2 2 2 3 4 4
8 2 1 4 4 6 5 2 2 1 3 1 2 1 1 3 2 3 3 1 1 1 4 2 6 2 2 1 1 4 4 6 6 7 7 7 6 6 6 5 5 4 4 4 4 4 3 3 1 1 1 1 1 0 0 1 1 2 2 2 2 2 3 3 3 3 2 2 3 3 2 3 2 1 1 1 1 1 2 2 2 2 2 3 3 4
2 3 5 1 3 6 7 4 3 3 6 2 1 1 2 1 0 1 0 1 3 5 7 5 9 3 3 0 2 2 5 4 5 5 6 6 3 4 5 4 4 3 2 3 3 2 3 2 2 3 3 3 2 1 2 2 2 2 3 3 3 3 4 4 3 3 3 2 2 3 2 3 3 2 3 3 3 2 3 2 2 2 3 3 4 3
4 4 6 4 6 8 7 4 2 1 1 1 1 0 2 2 4 1 2 2 5 2 4 2 3 3 1 3 5 5 4 3 3 4 2 2 5 6 5 4 4 3 4 4 3 2 3 2 1 2 2 3 3 4 3 3 4 4 4 4 4 4 4 4 3 3 3 3 3 4 4 3 3 3 3 3 4 4 4 3 3 4 4 3 4 5
2 0 3 5 7 9 8 3 1 4 1 2 6 3 6 4 4 4 2 3 8 3 7 9 8 8 11 11 8 4 2 3 4 5 4 3 3 4 4 4 4 3 2 3 3 4 3 1 3 3 3 3 2 2 2 2 3 3 3 4 4 3 4 5 4 4 5 5 5 5 6 6 6 6 6 6 5 4 3 4 4 4 4 4 4 5
2 1 5 4 5 6 3 3 1 2 1 3 4 7 6 5 2 3 6 7 3 2 13 8 5 2 8 9 9 6 4 5 6 6 4 2 4 5 4 4 3 2 2 2 2 3 4 5 4 4 4 4 4 4 4 4 4 4 4 4 5 5 4 5 4 5 5 5 6 6 7 6 5 6 6 6 6 6 6 6 5 5 4 4 4 5
3 4 5 3 5 6 3 2 3 2 2 3 4 5 10 11 5 6 4 5 4 8 14 10 9 7 8 11 11 8 6 8 5 5 3 3 2 2 3 1 0 1 1 0 3 4 5 5 6 6 6 6 5 5 5 5 5 4 4 4 5 5 6 5 4 5 5 5 5 6 6 6 5 5 6 7 7 8 8 8 7 7 6 4 5 5
4 3 1 1 2 4 6 2 1 1 2 4 6 10 13 12 12 6 9 12 9 8 8 9 8 14 13 14 9 10 5 2 2 2 5 6 4 4 4 2 1 0 1 1 2 2 2 3 4 5 5 5 5 6 5 5 6 6 6 7 6 5 7 4 5 5 5 5 6 6 5 5 5 6 6 6 7 8 9 9 9 10 10 10 9 8
5 5 5 1 1 4 3 2 1 0 3 5 10 14 14 13 7 8 10 7 5 6 11 10 12 16 11 4 4 0 3 4 6 6 4 4 4 3 2 0 2 1 3 3 3 2 2 3 2 2 3 4 6 6 5 5 5 6 7 7 7 7 8 5 5 5 5 7 6 5 5 5 6 5 6 7 6 7 8 9 9 9 11 11 11 12
3 4 2 2 1 4 2 4 2 5 5 8 13 18 19 13 10 10 9 7 8 11 10 8 8 11 2 0 3 2 4 5 4 3 3 2 1 0 1 3 3 3 3 3 2 2 1 2 2 3 4 4 4 3 2 3 4 4 5 6 6 7 6 6 6 7 7 7 7 7 7 7 7 7 8 7 7 7 7 8 8 9 10 10 12 12
3 4 2 1 1 5 5 4 4 2 2 7 16 22 15 11 11 7 8 8 10 9 9 9 11 4 6 4 5 1 3 2 1 2 1 1 2 2 4 4 3 3 2 3 2 1 1 0 0 1 3 4 4 4 3 2 4 5 4 5 5 4 5 6 5 5 6 6 6 7 7 7 7 8 8 8 7 7 7 8 9 10 10 11 11 9
4 5 4 4 4 3 1 3 3 2 6 14 1 2 6 6 6 9 10 10 12 9 7 4 5 3 4 3 6 5 6 4 3 2 3 3 4 4 5 3 2 1 1 2 3 3 2 1 1 2 3 3 2 2 2 3 3 2 2 3 4 5 5 6 7 6 7 7 7 6 7 7 7 8 8 7 7 7 8 9 10 10 10 9 9 10
6 4 5 3 3 3 2 5 4 10 16 4 2 4 4 5 5 11 11 10 8 5 5 5 3 3 8 9 7 6 5 2 3 2 4 4 3 4 4 1 0 0 2 3 4 4 1 1 2 3 4 4 4 3 4 5 4 4 5 5 6 6 7 7 7 8 7 8 8 8 7 8 8 9 9 9 9 10 10 11 11 11 10 8 8 10
6 7 2 2 3 1 2 6 4 13 5 4 7 2 2 2 1 1 6 7 7 8 7 4 6 5 5 4 4 4 2 1 1 3 4 3 2 3 3 1 0 1 2 4 4 2 1 4 4 4 3 1 3 4 5 5 4 5 5 4 5 6 6 6 7 7 7 8 8 9 8 7 9 10 10 10 11 11 12 12 12 12 11 10 11 11
7 3 4 4 4 7 7 10 14 6 13 17 13 6 4 7 5 6 8 8 6 4 6 4 3 5 5 3 2 1 0 2 3 6 2 2 3 3 3 1 2 2 3 3 1 4 4 4 4 3 2 2 4 5 4 4 5 5 5 6 6 6 6 7 8 8 8 8 8 8 8 8 9 10 11 11 12 12 13 13 14 13 11 13 13 13
7 9 5 7 5 8 6 8 5 3 10 11 2 0 2 2 6 4 6 5 4 4 2 6 6 6 5 2 1 0 1 4 6 6 2 3 3 3 3 3 1 1 3 2 4 4 3 3 3 3 3 4 5 5 4 4 5 5 6 6 6 7 7 7 8 7 8 7 7 8 8 9 9 11 12 12 12 13 13 12 11 12 11 12 14 15
3 6 6 10 4 3 4 8 8 7 8 5 2 3 1 3 6 3 3 6 4 3 3 5 5 5 6 4 1 3 2 2 6 6 8 5 4 4 1 2 1 1 0 4 4 4 3 3 3 3 4 5 6 5 5 6 6 7 7 6 6 6 7 7 7 7 8 9 9 9 8 9 10 10 11 12 12 12 13 13 13 12 11 12 12 14
8 3 5 7 10 9 7 7 9 4 4 3 5 3 5 2 4 6 4 7 1 3 4 7 9 8 6 5 5 4 4 5 7 8 4 6 5 3 2 0 1 3 4 3 3 4 4 3 3 4 5 6 5 5 6 6 6 5 7 7 6 6 7 7 7 8 9 9 9 8 8 8 10 10 10 11 13 12 12 11 12 12 12 12 10 11
3 1 5 14 11 13 15 8 4 6 3 3 6 5 4 1 4 2 11 7 4 5 5 6 8 8 7 7 6 4 8 9 7 8 4 1 1 1 1 0 2 6 6 4 3 4 3 3 5 5 4 4 5 5 4 5 5 7 6 6 6 6 6 7 8 9 9 9 9 9 9 8 7 10 10 9 10 11 12 10 11 13 12 12 11 12
1 2 4 0 7 9 8 10 11 3 5 8 7 7 5 2 5 8 6 3 6 6 7 10 10 9 8 8 7 8 8 8 6 4 3 3 3 3 1 3 4 3 3 4 5 3 3 3 4 3 3 3 4 4 4 4 6 6 5 6 6 7 7 8 8 8 8 9 9 9 9 8 8 8 9 9 9 11 12 11 11 11 11 11 11 13
8 7 6 7 3 0 1 6 4 5 2 8 5 2 2 4 7 5 3 2 4 6 8 7 7 8 7 8 8 9 8 6 5 6 5 3 2 3 1 3 4 4 2 2 3 4 3 3 3 3 3 3 3 4 4 4 5 5 6 7 9 8 8 8 8 9 8 9 10 9 9 9 9 9 8 9 10 11 13 12 11 12 10 11 13 13
3 5 3 5 6 5 6 6 6 6 6 5 9 6 4 7 5 5 4 4 5 6 5 7 7 10 8 8 8 8 9 9 6 5 4 3 2 1 2 3 4 4 3 3 4 2 2 2 2 2 2 3 3 4 3 4 5 6 8 10 9 8 8 8 8 8 9 9 9 10 9 9 9 8 8 9 10 10 12 12 11 11 9 10 11 11
6 8 8 7 3 8 7 5 5 3 5 5 6 6 6 6 5 6 6 6 5 6 6 6 9 9 9 9 9 9 8 8 7 6 4 5 3 3 3 2 3 3 3 3 3 2 3 4 5 5 3 3 4 3 2 3 5 8 10 10 8 8 9 9 9 9 10 10 10 10 9 9 9 9 9 9 9 10 10 11 10 10 9 9 11 12
3 6 3 1 4 2 2 4 1 2 4 4 6 8 7 8 7 4 6 5 6 8 7 8 8 9 8 8 8 7 9 7 6 5 5 4 4 3 4 3 3 3 3 3 3 4 3 4 4 5 6 4 3 3 2 3 4 8 10 9 8 8 8 9 10 11 11 11 10 10 10 12 11 9 9 10 8 9 9 10 10 9 10 8 10 10
6 6 3 5 1 1 4 6 6 10 10 9 9 6 6 6 8 6 6 6 7 7 8 7 8 8 9 8 11 11 9 6 6 6 4 3 3 3 2 2 2 3 3 4 3 4 5 5 7 7 6 7 4 3 4 4 4 6 8 8 8 8 9 9 10 11 11 11 11 11 10 11 10 10 9 8 8 8 8 9 8 10 11 11 11 9
7 5 4 8 6 7 8 7 10 11 9 7 7 7 7 9 9 8 8 7 8 7 5 7 7 7 5 7 10 8 8 6 6 7 4 3 3 3 2 2 2 2 3 3 3 4 4 4 5 6 5 6 5 5 5 4 5 6 7 7 8 8 8 9 9 10 11 12 11 10 9 10 12 12 10 9 9 9 9 8 8 10 10 10 10 11
5 1 5 5 6 5 4 8 14 7 6 10 8 6 8 9 8 8 8 9 9 8 8 5 5 7 9 10 6 6 5 6 5 4 3 2 2 1 1 2 2 2 2 3 3 4 4 4 5 4 5 7 6 6 5 5 7 7 7 8 7 8 8 10 9 10 11 11 10 10 9 9 10 10 10 10 9 8 9 10 10 10 11 11 9 10
2 10 7 2 1 4 9 12 4 3 7 8 9 11 10 10 9 11 10 8 7 8 7 7 5 2 4 4 6 7 7 5 3 3 2 2 2 2 2 2 2 2 2 2 2 3 3 3 4 5 6 7 6 6 6 7 8 7 7 7 7 7 8 10 10 9 10 9 9 10 10 9 10 9 10 10 10 10 10 13 22 17 14 13 21 28
11 13 7 8 9 12 14 15 7 8 8 10 11 9 6 6 6 8 9 10 10 9 10 9 7 2 2 1 1 4 4 5 4 4 3 2 2 3 4 3 3 3 4 3 4 4 3 4 4 5 6 8 6 7 7 9 9 8 7 7 7 7 8 8 9 9 9 9 9 10 11 10 10 9 10 10 10 10 11 11 13 23 27 25 26 27
Wind_Direction
133 151 163 195 223 217 222 211 216 228 223 245 263 271 261 264 285 278 268 267 312 322 250 253 274 300 290 287 282 279 289 312 278 281 278 342 83 95 91 86 79 67 63 47 48 42 39 36 32 32 31 29 33 28 24 29 27 27 27 31 18 351 16 52 55 46 57 57 30 47 54 69 9 45 28 34 17 49 86 135 126 140 151 168 177 182
106 188 229 221 216 215 226 226 234 259 252 230 244 251 273 239 272 243 281 283 309 255 282 301 358 311 293 287 281 278 319 294 284 275 338 76 92 89 89 81 72 80 67 49 43 37 37 34 32 33 32 29 33 21 23 26 25 28 30 34 25 23 22 16 33 57 57 67 118 116 108 114 65 43 47 18 348 55 62 96 124 129 157 171 185 193
173 205 233 228 226 235 255 253 242 243 261 277 272 284 303 268 256 285 281 296 326 10 263 298 317 289 286 283 276 285 286 275 293 352 117 114 91 83 78 79 76 65 56 52 50 42 37 36 35 36 34 33 36 31 29 21 27 26 29 27 28 26 29 30 19 34 40 44 40 64 41 52 57 38 39 61 343 10 48 41 53 110 135 154 189 199
227 278 243 238 224 231 261 252 255 262 270 260 288 289 264 244 335 299 289 342 331 83 275 290 302 288 281 272 278 278 270 327 59 76 71 74 80 74 64 67 73 68 61 56 47 41 37 38 39 39 36 32 36 35 31 26 25 26 25 24 26 25 29 29 28 33 34 64 85 70 75 51 79 80 24 34 28 24 23 358 11 30 110 154 186 204
203 207 217 227 222 209 237 254 253 255 278 268 209 231 252 275 228 203 267 320 295 314 86 6 330 309 259 276 309 306 65 71 83 82 76 74 81 87 82 64 55 61 60 62 54 47 41 41 37 36 34 34 40 37 36 32 27 26 23 20 23 27 28 28 28 33 38 35 30 23 26 35 18 4 19 18 350 358 12 345 329 276 79 148 193 207
255 253 222 200 212 211 214 251 249 208 260 291 234 204 227 227 256 272 314 28 20 337 331 51 348 297 258 255 253 261 38 63 6 81 71 68 72 73 72 75 70 62 54 55 50 49 53 55 46 36 33 35 33 34 29 31 31 27 23 21 20 26 25 24 25 29 43 51 54 45 44 34 26 12 8 10 340 330 320 282 300 325 351 146 187 230
211 217 212 229 242 247 210 224 223 151 195 108 270 151 164 166 154 87 358 47 8 207 281 67 344 281 282 284 272 275 84 85 54 71 82 76 71 70 67 68 70 73 66 58 55 40 45 44 51 43 39 31 33 26 23 34 33 29 27 23 26 27 24 19 23 28 36 46 48 57 61 60 51 32 355 325 328 335 315 284 280 291 346 26 204 271
195 177 109 102 164 197 215 250 233 162 148 241 241 138 118 119 196 242 104 153 239 264 307 308 184 257 313 278 253 260 109 107 80 74 64 67 72 71 79 74 70 69 76 84 73 60 51 47 49 51 38 35 32 18 23 36 35 33 27 25 24 27 27 23 20 29 30 46 44 46 47 51 44 39 5 349 345 2 7 16 353 319 279 283 211 237
186 290 173 188 170 173 207 216 210 142 144 218 226 135 130 137 188 163 118 193 233 24 295 281 217 291 245 258 286 103 104 102 102 87 85 81 77 70 60 66 77 76 62 57 70 67 62 53 45 39 38 25 28 25 29 33 33 32 29 30 28 30 27 21 22 25 26 36 42 46 41 38 25 22 11 353 12 16 6 24 7 10 335 326 307 244
345 185 221 165 141 215 225 277 160 137 172 274 166 62 69 52 86 88 116 87 338 67 272 253 194 221 281 265 339 60 114 169 145 93 75 55 53 71 79 56 43 57 73 60 58 62 58 51 53 55 57 39 26 16 18 25 36 39 37 37 36 33 27 22 26 27 27 27 32 41 36 36 20 14 8 16 12 10 7 18 14 7 8 352 330 315
232 288 197 131 201 210 176 86 101 71 147 121 74 50 358 18 359 33 81 103 54 316 245 232 215 187 287 280 232 142 203 167 128 104 108 99 84 64 59 69 58 40 43 54 62 57 63 58 47 33 47 48 44 35 33 32 33 40 40 39 48 39 33 30 34 37 37 32 34 39 36 34 25 12 14 15 10 6 10 10 2 7 357 10 0 342
296 343 210 258 81 74 100 93 9 84 124 113 71 102 26 331 18 35 347 41 106 268 258 247 206 189 190 283 305 264 277 161 155 155 151 121 105 96 80 59 56 49 44 45 45 43 39 42 39 38 36 28 26 29 29 26 26 28 30 29 38 33 30 30 28 34 37 38 40 43 41 37 28 23 22 19 13 4 6 2 359 351 5 4 2 13
238 214 229 20 307 140 112 106 307 22 12 79 73 45 79 271 31 324 30 329 203 214 245 311 106 20 256 230 221 19 38 58 53 92 129 126 116 97 78 74 52 37 48 50 47 43 36 37 30 28 26 23 25 25 24 24 24 23 23 23 29 22 17 21 24 33 34 40 40 38 35 31 24 24 25 19 17 5 4 359 360 2 4 1 10 359
275 293 172 246 7 199 125 152 244 302 231 107 141 140 98 178 122 240 260 218 301 296 264 233 313 242 238 290 44 96 74 89 95 100 106 114 117 114 101 74 56 43 47 45 46 44 40 38 37 35 28 26 23 23 21 21 24 20 24 22 28 18 15 14 21 19 24 29 35 39 42 36 30 27 23 22 19 10 11 4 0 1 1 8 12 359
298 334 275 154 222 187 172 190 181 172 162 202 140 150 179 151 151 256 208 239 228 221 276 272 9 238 121 261 34 83 81 86 91 96 99 97 103 109 116 110 89 62 40 42 45 41 40 32 39 39 33 26 24 25 22 18 16 18 18 17 18 16 12 15 15 17 21 19 23 28 31 31 27 21 20 18 16 14 12 2 360 356 353 7 4 7
213 220 260 282 223 128 169 261 138 95 76 227 160 86 84 233 157 207 204 204 248 304 300 289 211 203 139 78 58 53 74 73 82 89 95 94 92 104 84 72 64 61 65 51 54 47 42 49 47 45 37 31 30 26 27 23 19 21 15 15 16 18 11 15 15 17 18 16 18 24 26 24 26 25 25 23 16 11 7 353 354 350 356 0 7 2
6 275 305 347 30 124 172 146 69 136 214 280 85 215 211 200 123 336 348 242 130 355 250 178 298 346 104 60 68 66 77 76 79 92 101 110 109 88 87 90 86 97 87 68 71 73 65 53 55 59 49 34 28 25 25 28 28 28 23 20 17 12 12 10 12 9 12 12 18 15 16 15 15 15 19 17 10 10 351 358 359 5 2 10 15 4
170 253 282 104 186 290 206 125 44 21 144 81 168 241 265 99 109 147 224 317 239 233 265 262 244 270 178 285 154 124 109 130 110 119 112 99 84 98 140 157 160 159 164 167 173 172 147 122 85 61 44 43 39 31 25 28 27 28 29 24 24 19 18 6 5 2 0 4 7 6 4 5 6 4 359 5 3 354 4 4 5 2 8 9 2 5
100 328 271 292 200 277 29 66 1 341 35 163 192 235 115 262 302 309 87 281 257 252 278 253 253 239 211 223 143 208 160 163 159 146 131 142 159 179 197 204 196 187 175 178 180 166 157 126 109 93 52 29 29 29 27 25 30 28 24 18 26 22 11 359 356 357 355 2 350 340 336 333 343 344 346 335 348 350 8 6 3 6 359 356 359 357
29 204 299 328 115 341 14 80 226 263 324 21 41 18 169 100 184 197 215 194 200 273 276 275 232 263 166 196 192 180 172 161 161 166 182 184 184 193 194 198 195 193 195 194 183 161 135 102 89 81 67 62 51 37 22 22 27 40 29 18 10 9 13 6 1 354 351 337 350 340 346 344 338 337 333 335 346 358 3 360 2 359 360 354 344 347
280 109 233 289 299 24 276 144 199 169 168 353 40 330 8 49 222 110 328 151 182 217 228 277 264 262 274 264 213 174 164 159 151 162 179 187 186 196 194 192 195 193 194 178 163 148 110 100 66 45 72 87 67 45 26 23 13 329 3 359 354 10 334 353 330 344 326 318 320 9 351 351 351 354 349 356 354 4 352 353 353 347 336 336 342 339
71 41 205 296 359 203 230 222 176 148 149 163 158 209 169 123 284 272 262 115 147 215 232 237 258 204 270 322 76 118 123 132 163 165 182 200 201 199 199 193 179 173 183 159 153 142 142 152 171 223 337 15 41 311 331 287 309 315 266 252 259 263 254 265 292 285 300 304 293 327 298 321 328 337 348 3 341 351 324 326 324 319 327 333 316 338
148 143 104 246 230 233 216 249 274 305 247 189 159 237 193 172 155 207 257 237 148 240 241 267 289 238 172 287 108 123 140 161 170 168 193 204 204 197 193 170 165 156 161 160 156 169 175 185 188 193 202 201 204 233 236 261 230 223 222 224 220 207 245 225 242 243 262 275 286 286 270 262 244 222 208 193 263 274 276 276 282 300 327 314 322 324
67 89 56 287 296 305 313 309 31 51 197 220 17 28 117 201 196 178 236 155 247 296 260 211 236 173 262 275 218 137 139 162 184 178 191 201 194 176 163 157 155 160 179 171 176 169 181 185 200 94 132 109 123 155 266 248 258 261 261 237 234 240 259 265 258 254 265 269 279 274 271 272 262 275 251 262 248 285 288 287 299 291 311 292 288 311
81 278 123 310 298 335 338 347 25 352 51 89 152 277 144 172 265 186 85 179 219 201 229 244 250 228 251 323 324 103 129 165 193 225 189 196 195 164 156 158 159 152 112 116 134 140 117 117 124 168 189 182 219 241 272 282 278 279 277 284 277 263 265 258 259 240 256 233 248 260 240 259 252 246 257 253 251 257 266 279 288 300 308 307 309 300
117 187 126 163 207 250 269 249 259 253 275 303 193 319 281 176 232 86 272 213 243 217 159 202 261 235 253 249 217 173 172 203 247 230 281 196 172 159 152 155 151 134 155 159 160 134 162 198 214 213 212 209 208 207 217 229 232 239 238 248 236 240 256 255 243 245 269 284 297 295 293 283 262 258 250 247 245 252 257 265 279 286 297 303 307 312
160 169 146 177 177 224 237 210 227 106 352 271 286 283 270 232 224 227 203 231 245 268 276 242 243 272 279 268 270 299 348 312 274 276 236 165 146 142 146 155 158 173 198 202 199 200 209 217 235 225 228 216 219 225 230 249 270 273 281 290 281 256 273 289 303 307 322 322 329 323 320 322 318 316 317 314 299 274 268 267 266 267 274 276 278 287
81 256 236 186 220 234 216 242 272 67 196 226 222 259 275 268 207 156 188 238 132 359 265 245 247 242 266 295 296 285 300 298 297 266 244 158 139 146 159 161 182 202 263 295 271 243 246 259 268 263 250 244 243 237 239 234 232 240 249 257 272 278 285 283 297 303 308 315 317 314 309 309 306 312 310 310 313 314 312 311 304 290 278 277 280 279
147 207 275 150 255 253 256 280 50 67 182 194 240 262 269 266 254 223 233 230 213 225 257 276 290 272 267 269 278 290 298 288 253 233 194 168 144 107 94 99 115 244 269 253 241 251 263 264 255 254 256 247 246 242 245 253 263 267 268 258 261 273 270 268 278 276 279 290 290 285 289 296 302 305 311 314 319 318 316 313 309 306 302 285 276 271
84 270 219 59 243 302 288 314 356 46 285 288 258 251 251 253 259 251 244 243 228 240 250 262 271 273 273 272 284 284 265 181 122 88 80 80 108 123 122 149 150 306 290 285 278 268 236 239 256 262 264 266 252 246 251 252 253 254 257 266 270 269 268 269 266 263 270 270 267 273 281 288 292 291 298 306 305 305 306 306 307 309 310 309 304 299
106 272 101 350 81 293 279 96 159 148 235 268 276 266 259 257 264 246 253 263 265 256 251 255 262 267 269 283 261 122 86 79 75 79 105 135 121 105 102 221 242 255 271 274 272 275 295 316 335 337 327 302 298 299 312 325 325 331 321 307 303 296 292 311 300 285 276 272 272 277 284 290 283 288 291 284 289 289 290 292 295 299 300 300 301 302
75 249 54 98 52 301 277 119 225 216 231 243 265 267 260 253 256 249 247 237 237 249 255 255 249 256 285 314 84 43 70 84 116 106 78 75 137 120 292 268 253 261 265 258 261 275 312 340 351 7 10 19 18 21 14 344 329 340 340 331 328 319 324 332 325 321 316 313 317 315 312 304 300 298 290 291 286 283 283 285 287 288 289 291 294 294
160 141 152 118 209 252 265 132 195 158 272 303 255 248 257 251 233 252 250 237 230 237 252 249 248 230 200 192 152 212 102 144 139 167 114 296 276 239 251 253 245 251 260 266 277 277 253 236 198 79 59 61 49 33 3 18 27 10 351 355 334 346 0 355 349 339 331 322 322 318 314 309 304 300 297 296 295 294 295 292 291 291 290 287 286 288
134 156 191 168 199 236 261 109 111 158 235 240 315 141 185 212 202 221 239 238 241 212 213 199 230 220 164 179 184 204 176 195 179 231 186 198 244 269 262 260 251 249 256 289 261 243 246 238 70 93 97 85 49 11 358 63 59 337 329 335 346 359 350 350 338 335 325 320 317 315 313 310 310 306 305 306 307 305 301 301 296 294 292 292 291 284
175 155 197 170 166 235 168 117 187 209 238 256 129 192 184 201 206 227 241 241 246 250 259 270 226 215 217 213 196 183 193 227 198 223 282 250 186 218 244 262 230 32 313 287 297 278 255 135 111 80 49 37 20 5 32 23 15 357 5 2 356 352 351 343 336 331 328 323 321 325 322 322 320 319 319 321 320 317 311 308 308 306 308 304 294 295
187 157 167 236 142 6 161 202 221 231 255 327 283 308 353 55 187 47 305 271 247 234 226 223 246 232 184 169 177 182 170 232 319 275 239 272 192 174 161 169 249 239 278 279 263 260 123 100 94 82 70 53 33 28 41 23 5 11 355 352 354 343 340 335 326 320 318 316 320 320 323 330 328 325 325 325 325 323 320 319 317 316 318 314 305 300
166 162 165 225 201 213 219 220 238 339 322 288 284 275 194 222 212 186 241 263 241 217 163 198 182 160 148 182 154 226 267 29 1 302 291 199 187 186 157 199 216 248 256 300 114 114 109 117 107 93 100 66 54 51 32 16 11 2 349 349 343 338 331 329 318 316 317 314 317 324 334 337 332 328 327 327 323 319 316 315 315 313 315 308 303 300
180 187 205 181 256 210 206 252 273 285 252 269 241 256 18 151 122 127 105 294 292 271 179 185 184 176 154 156 199 202 81 40 328 284 272 230 212 201 223 217 245 307 357 81 97 107 109 100 85 62 68 77 71 46 22 11 7 358 349 342 336 331 324 320 312 314 314 316 330 334 336 335 333 328 326 324 318 315 312 313 310 306 311 306 304 300
228 198 192 216 235 239 220 223 227 233 248 218 238 159 189 151 118 108 65 289 266 210 246 148 145 167 172 160 220 100 54 326 260 260 264 226 251 236 228 316 292 298 175 138 125 105 98 100 106 90 67 65 46 17 17 8 9 359 342 335 327 321 314 311 312 321 329 331 332 331 335 337 336 329 323 317 314 317 314 312 308 305 308 301 299 295
157 168 156 214 221 217 226 236 239 222 244 269 209 203 182 121 81 56 342 275 262 224 202 158 165 180 193 195 158 153 172 221 255 268 234 216 208 223 178 209 313 116 134 135 126 130 129 130 90 57 57 48 26 10 15 11 4 348 329 323 319 314 310 312 329 333 327 325 329 334 335 333 324 317 316 315 311 309 304 304 304 303 303 299 294 292
153 305 199 214 220 228 228 246 266 284 249 199 197 221 228 173 80 215 247 239 231 206 198 177 179 187 178 180 171 176 229 208 219 240 239 214 244 279 241 203 179 151 151 151 133 118 99 78 79 77 66 55 21 17 18 9 352 330 321 316 317 310 316 328 328 324 326 327 325 323 318 314 314 311 308 303 301 301 299 299 298 299 297 294 291 287
333 111 312 179 225 225 226 231 240 258 235 186 250 180 170 92 238 231 237 195 160 210 209 193 201 210 185 189 194 210 232 237 238 252 254 229 198 229 205 144 122 100 101 108 103 95 101 92 81 71 59 44 26 26 15 359 340 319 320 319 311 311 324 324 322 324 323 319 313 309 307 307 304 299 296 298 297 295 292 291 289 289 290 288 289 288
200 145 219 194 212 306 166 244 261 258 278 153 133 63 262 152 229 200 201 251 193 192 198 219 213 231 187 218 217 219 234 251 231 223 222 219 202 252 281 143 147 149 138 95 55 40 63 58 54 50 50 29 32 27 358 354 332 324 321 313 308 318 321 321 322 316 312 307 304 305 304 302 298 298 298 294 292 290 290 292 291 288 286 286 287 287
210 98 238 240 178 173 189 207 208 206 216 191 143 181 232 203 195 172 149 232 228 198 206 211 225 226 217 208 220 230 231 233 245 229 233 253 242 241 129 133 119 114 101 93 104 83 63 62 36 17 34 23 31 13 358 1 338 323 317 306 313 318 319 317 313 309 306 305 303 302 299 298 297 294 291 290 290 286 286 289 288 286 285 286 286 288
205 179 186 206 211 149 200 214 240 228 181 193 178 212 215 232 212 206 201 209 210 233 207 203 226 232 223 216 222 220 228 216 215 210 194 226 197 176 156 141 131 133 130 121 95 58 49 30 354 344 355 14 10 359 7 19 343 317 307 305 321 317 316 314 312 310 307 305 302 299 299 298 296 294 291 287 286 289 290 287 287 288 286 284 285 284
267 214 254 32 250 163 259 197 163 274 262 254 226 211 217 239 251 203 195 224 232 230 203 209 223 233 231 217 218 233 216 212 212 222 214 198 162 161 125 114 91 100 100 90 63 40 38 11 359 348 333 344 356 351 13 354 332 307 299 310 314 312 311 311 311 308 305 303 301 302 303 301 298 291 286 286 283 282 285 288 292 287 288 283 281 284
248 232 163 205 240 224 260 148 182 233 245 241 240 230 224 224 233 220 228 227 248 251 244 227 226 230 231 218 213 213 217 210 213 221 208 172 151 138 120 117 95 82 68 49 34 34 13 6 343 332 327 323 337 347 330 323 302 285 297 306 307 307 307 305 302 300 302 304 304 303 302 299 299 300 297 293 292 286 287 288 283 285 289 287 286 283
287 200 201 229 237 210 242 235 243 235 236 248 237 241 244 240 238 237 230 239 245 252 236 236 224 238 210 208 207 202 218 211 202 219 207 180 141 121 108 98 94 67 61 70 52 38 10 355 328 316 319 318 324 326 320 313 300 294 297 299 300 301 300 298 298 300 302 301 301 299 300 298 297 298 300 297 295 297 294 283 280 283 282 285 285 285
216 112 224 186 201 252 301 261 250 274 293 267 256 228 226 232 239 249 243 241 245 250 251 242 211 202 185 206 188 196 213 225 210 194 176 131 105 97 97 95 78 73 43 23 17 19 348 324 317 311 318 313 317 317 316 308 300 299 300 297 295 295 297 297 298 296 296 296 298 296 297 296 298 298 298 299 294 284 283 288 287 280 275 267 262 267
194 243 220 95 313 250 230 241 167 192 247 253 251 243 234 230 230 245 256 256 248 245 233 212 224 214 190 187 183 180 195 198 170 132 142 125 116 102 78 66 55 37 13 7 1 340 329 319 321 322 316 309 314 316 314 306 298 297 293 292 289 292 294 296 298 297 295 297 298 299 301 301 300 299 298 298 299 299 292 285 294 293 292 291 291 292
213 228 206 207 219 242 245 248 216 213 244 245 248 248 235 235 225 235 244 246 246 236 218 205 196 183 155 73 64 144 163 162 160 112 113 104 85 81 77 66 31 360 340 340 337 332 339 327 327 319 313 309 318 316 308 301 298 299 294 289 291 291 289 292 296 297 296 300 300 302 302 301 301 301 301 298 299 298 297 300 297 297 297 295 296 296